| time (UTC) | temp F | wind direction | speed MPH | gust MPH | rain 1hr in | rain 24hr in | rain mn in | humidity % | barometer mb |
| 20260505233029 | 49 | 253 | 0.0 | 2.0 | 0.29 | 0.75 | 0.75 | 97 | 1018.2 |
| 20260505230323 | 49 | 253 | 0.0 | 2.0 | 0.22 | 0.62 | 0.62 | 97 | 1018.8 |
| 20260505230055 | 49 | 253 | 1.0 | 2.0 | 0.21 | 0.60 | 0.60 | 97 | 1018.7 |
| 20260505230013 | 49 | 253 | 1.0 | 2.0 | 0.21 | 0.60 | 0.60 | 97 | 1018.7 |
| 20260505223056 | 50 | 295 | 1.0 | 7.0 | 0.17 | 0.48 | 0.46 | 97 | 1018.6 |
| 20260505220331 | 50 | 284 | 3.0 | 5.0 | 0.14 | 0.41 | 0.39 | 96 | 1018.5 |
| 20260505220116 | 50 | 275 | 1.0 | 3.0 | 0.15 | 0.41 | 0.39 | 96 | 1018.3 |
| 20260505220034 | 50 | 275 | 1.0 | 3.0 | 0.15 | 0.41 | 0.39 | 96 | 1018.3 |
| 20260505213012 | 51 | 249 | 3.0 | 9.0 | 0.13 | 0.31 | 0.29 | 96 | 1018.4 |
| 20260505210413 | 52 | 284 | 6.0 | 11.0 | 0.19 | 0.27 | 0.25 | 95 | 1018.3 |
| 20260505210110 | 52 | 254 | 4.0 | 11.0 | 0.19 | 0.26 | 0.24 | 95 | 1018.4 |
| 20260505203027 | 55 | 328 | 2.0 | 10.0 | 0.16 | 0.18 | 0.16 | 95 | 1017.8 |
| 20260505200342 | 56 | 282 | 4.0 | 6.0 | 0.06 | 0.08 | 0.06 | 92 | 1018.0 |
| 20260505200104 | 56 | 292 | 4.0 | 6.0 | 0.05 | 0.07 | 0.05 | 92 | 1017.9 |
| 20260505193105 | 58 | 273 | 6.0 | 11.0 | 0.00 | 0.02 | 0.00 | 85 | 1017.9 |
| 20260505190313 | 60 | 308 | 7.0 | 14.0 | 0.00 | 0.02 | 0.00 | 81 | 1017.7 |
| 20260505190058 | 60 | 280 | 9.0 | 14.0 | 0.00 | 0.02 | 0.00 | 81 | 1017.7 |
| 20260505183033 | 60 | 324 | 7.0 | 14.0 | 0.00 | 0.02 | 0.00 | 83 | 1017.9 |
| 20260505180325 | 61 | 273 | 7.0 | 14.0 | 0.00 | 0.02 | 0.00 | 82 | 1017.7 |
| 20260505180048 | 61 | 289 | 5.0 | 14.0 | 0.00 | 0.02 | 0.00 | 81 | 1017.7 |
| 20260505173022 | 62 | 303 | 7.0 | 13.0 | 0.00 | 0.02 | 0.00 | 79 | 1017.4 |
| 20260505170317 | 63 | 316 | 10.0 | 17.0 | 0.00 | 0.02 | 0.00 | 76 | 1017.5 |
| 20260505170055 | 63 | 321 | 9.0 | 17.0 | 0.00 | 0.02 | 0.00 | 76 | 1017.4 |
| 20260505163025 | 67 | 276 | 10.0 | 21.0 | 0.00 | 0.02 | 0.00 | 69 | 1016.8 |
| 20260505160347 | 67 | 303 | 8.0 | 15.0 | 0.00 | 0.02 | 0.00 | 68 | 1016.7 |
| 20260505160105 | 67 | 266 | 7.0 | 14.0 | 0.00 | 0.02 | 0.00 | 68 | 1016.7 |
| 20260505153042 | 69 | 302 | 6.0 | 15.0 | 0.00 | 0.02 | 0.00 | 64 | 1015.7 |
| 20260505150314 | 66 | 263 | 9.0 | 15.0 | 0.00 | 0.02 | 0.00 | 67 | 1016.4 |
| 20260505140430 | 66 | 231 | 8.0 | 18.0 | 0.00 | 0.02 | 0.00 | 70 | 1015.3 |
| 20260505140327 | 66 | 231 | 8.0 | 18.0 | 0.00 | 0.02 | 0.00 | 70 | 1015.3 |
| 20260505123053 | 65 | 210 | 9.0 | 18.0 | 0.00 | 0.02 | 0.00 | 65 | 1014.5 |
| 20260505120408 | 66 | 234 | 5.0 | 12.0 | 0.00 | 0.02 | 0.00 | 66 | 1014.3 |
| 20260505120022 | 66 | 252 | 6.0 | 12.0 | 0.00 | 0.02 | 0.00 | 65 | 1014.2 |
| 20260505113105 | 66 | 272 | 8.0 | 17.0 | 0.00 | 0.02 | 0.00 | 64 | 1014.3 |
| 20260505113023 | 66 | 272 | 8.0 | 17.0 | 0.00 | 0.02 | 0.00 | 64 | 1014.3 |
| 20260505110319 | 66 | 244 | 7.0 | 13.0 | 0.00 | 0.02 | 0.00 | 66 | 1013.8 |
| 20260505100414 | 66 | 205 | 5.0 | 10.0 | 0.00 | 0.02 | 0.00 | 65 | 1013.0 |
| 20260505100030 | 66 | 222 | 6.0 | 15.0 | 0.00 | 0.02 | 0.00 | 65 | 1013.0 |
| 20260505093054 | 67 | 254 | 5.0 | 21.0 | 0.00 | 0.02 | 0.00 | 63 | 1012.6 |
| 20260505090353 | 67 | 214 | 9.0 | 15.0 | 0.00 | 0.02 | 0.00 | 64 | 1012.4 |
| 20260505090112 | 67 | 206 | 7.0 | 15.0 | 0.00 | 0.02 | 0.00 | 64 | 1012.5 |
| 20260505083035 | 67 | 236 | 7.0 | 17.0 | 0.00 | 0.02 | 0.00 | 63 | 1012.5 |
| 20260505080355 | 68 | 248 | 10.0 | 21.0 | 0.00 | 0.02 | 0.00 | 61 | 1012.2 |
| 20260505080030 | 68 | 232 | 10.0 | 15.0 | 0.00 | 0.02 | 0.00 | 61 | 1012.3 |
| 20260505073049 | 69 | 196 | 9.0 | 22.0 | 0.00 | 0.02 | 0.00 | 60 | 1012.0 |
| 20260505070424 | 68 | 221 | 11.0 | 28.0 | 0.00 | 0.02 | 0.00 | 63 | 1012.0 |
| 20260505070321 | 68 | 221 | 11.0 | 28.0 | 0.00 | 0.02 | 0.00 | 63 | 1012.0 |
| 20260505070104 | 68 | 229 | 8.0 | 28.0 | 0.00 | 0.02 | 0.00 | 63 | 1012.0 |
| 20260505063046 | 66 | 211 | 8.0 | 19.0 | 0.00 | 0.02 | 0.00 | 67 | 1012.3 |
| 20260505060404 | 66 | 203 | 6.0 | 13.0 | 0.00 | 0.02 | 0.00 | 68 | 1012.8 |
| 20260505060018 | 66 | 221 | 6.0 | 13.0 | 0.00 | 0.02 | 0.00 | 68 | 1012.8 |
| 20260505053013 | 67 | 201 | 9.0 | 19.0 | 0.00 | 0.02 | 0.00 | 66 | 1013.1 |
| 20260505050349 | 67 | 236 | 10.0 | 17.0 | 0.00 | 0.02 | 0.00 | 66 | 1013.5 |
| 20260505040341 | 67 | 226 | 6.0 | 15.0 | 0.00 | 0.02 | 0.00 | 66 | 1013.4 |
| 20260505040048 | 67 | 208 | 7.0 | 15.0 | 0.00 | 0.02 | 0.00 | 66 | 1013.5 |
| 20260505033047 | 67 | 220 | 8.0 | 16.0 | 0.00 | 0.02 | 0.02 | 66 | 1013.6 |
| 20260505030325 | 67 | 213 | 8.0 | 19.0 | 0.00 | 0.02 | 0.02 | 65 | 1013.7 |
| 20260505030017 | 67 | 164 | 5.0 | 13.0 | 0.00 | 0.02 | 0.02 | 64 | 1013.5 |
| 20260505023047 | 68 | 213 | 8.0 | 18.0 | 0.00 | 0.02 | 0.02 | 62 | 1013.9 |
| 20260505020325 | 67 | 189 | 4.0 | 11.0 | 0.00 | 0.02 | 0.02 | 63 | 1013.7 |
| 20260505020108 | 67 | 306 | 8.0 | 11.0 | 0.00 | 0.02 | 0.02 | 63 | 1013.6 |
| 20260505013024 | 67 | 233 | 3.0 | 10.0 | 0.00 | 0.02 | 0.02 | 64 | 1013.5 |
| 20260505010317 | 68 | 215 | 5.0 | 10.0 | 0.00 | 0.02 | 0.02 | 64 | 1013.1 |
| 20260505010040 | 68 | 223 | 6.0 | 10.0 | 0.00 | 0.02 | 0.02 | 64 | 1013.1 |
| 20260505003017 | 68 | 230 | 3.0 | 11.0 | 0.00 | 0.02 | 0.02 | 66 | 1012.8 |
| 20260505000402 | 66 | 228 | 2.0 | 7.0 | 0.00 | 0.02 | 0.02 | 75 | 1012.7 |
| 20260505000053 | 65 | 142 | 3.0 | 5.0 | 0.00 | 0.02 | 0.02 | 76 | 1012.7 |